{"data":{"norad_id":59107,"intl_designator":"2024-043K","name":"BRO-13","alt_names":[],"object_type":"PAYLOAD","status":"ACTIVE","operator":null,"country":"FR","launch_date":"2024-03-04","launch_site_code":"AFWTR","launch_vehicle":null,"mission":null,"orbit_class":"UNKNOWN","rcs_meters":null,"size_class":null,"mass_kg":null,"dimensions":null,"purposes":[],"wikipedia_slug":null,"has_3d_model":false,"image_url":null,"decayed_at":null,"tle_current":{"epoch":"2026-09-22T21:38:41.650080Z","epoch_age_seconds":50539,"freshness":"FRESH","line1":"1 59107U 24043K   26265.90187095  .00000755  00000+0  71160-4 0  9990","line2":"2 59107  97.8620  37.3135 0009518  40.1937 319.9987 14.96777128139231","mean_motion":14.96777128,"eccentricity":0.0009518,"inclination_deg":97.862,"raan_deg":37.3135,"arg_perigee_deg":40.1937,"mean_anomaly_deg":319.9987,"bstar":7.116e-5,"rev_number":13923,"period_min":96.206707936814,"perigee_km":570.24240256705,"apogee_km":583.48193898854,"semimajor_km":6954.9991707778,"source":"CELESTRAK","updated_at":"2026-09-23T09:00:19.175248Z"}}}